Regional Weather Roundup
Issued by NWS

Home | Current Version | Previous Version | Graphics & Text | Print | Product List | Glossary On
Versions: 1 2 3 4 5 6 7 8 9 10 11 12 13 14 15 16 17 18 19 20 21 22 23 24 25 26 27 28 29 30 31 32 33 34 35 36 37 38 39 40 41 42 43 44 45 46 47 48 49 50
000
ASUS43 KLOT 050921
RWRIL

ILLINOIS REGIONAL WEATHER ROUNDUP
NATIONAL WEATHER SERVICE CHICAGO/ROMEOVILLE IL
400 AM CDT TUE MAY 05 2015

NOTE: "FAIR" INDICATES FEW OR NO CLOUDS BELOW 12,000 FEET WITH NO
SIGNIFICANT WEATHER AND/OR OBSTRUCTIONS TO VISIBILITY.

* THESE STATIONS ARE NOT UNDER NWS QUALITY CONTROL. THEY ALSO MAY NOT
  REPORT WEATHER SUCH AS PRECIPITATION OR FOG.

ILZ001-002-007-009-015-016-024-051000-
NORTHWEST ILLINOIS

CITY           SKY/WX    TMP DP  RH WIND       PRES   REMARKS
MOLINE         RAIN      59  58  96 E9        30.14R FOG
STERLING*      CLOUDY    55  52  88 E15       30.16R
$$

ILZ003-004-008-010-011-017-018-051000-
NORTH CENTRAL ILLINOIS

CITY           SKY/WX    TMP DP  RH WIND       PRES   REMARKS
ROCKFORD       RAIN      51  48  89 E13       30.19F FOG
FREEPORT*      RAIN      50  49  96 E10       30.19R
ROCHELLE*      RAIN      51  49  95 E15       30.17F
DE KALB*       RAIN      49  47  93 E13       30.18F
PERU*          LGT RAIN  53  51  94 N13       30.16R
$$

ILZ005-006-012>014-019>023-051000-
NORTHEAST ILLINOIS

CITY           SKY/WX    TMP DP  RH WIND       PRES   REMARKS
CHICAGO-OHARE  TSTM      50  47  89 N9        30.20R
CHICAGO-MIDWAY LGT RAIN  55  49  80 N7        30.16S
AURORA         RAIN      51  47  86 NE12      30.17F FOG
LANSING*       CLOUDY    54  52  92 CALM      30.17R FOG
JOLIET*        TSTM      54  51  90 N7        30.19R
WAUKEGAN       RAIN      49  45  86 N6        30.21R FOG
DUPAGE AIRPORT HVY RAIN  50  48  93 NE7       30.19F FOG
KANKAKEE*      CLOUDY    62  61  97 E10       30.13F
WHEELING       RAIN      50  46  86 N6        30.21R FOG
MORRIS*        TSTM      54  52  92 N5        30.13F
ROMEOVILLE*    CLOUDY    52  48  85 N8        30.18R
NORTHERLY ISL    N/A     50  44  80 N12         N/A
$$

LMZ740>746-051000-
SOUTHERN LAKE MICHIGAN

STATION/POSITION SKY/WX   TEMP    WIND        PRES    VSBY  WAVE
                          AIR SEA DIR/SP/G                  HT/PER
                          (F)     (DEG/KT/KT) (MB)    (MI)  (FT/S)
HARRISON CRIB              51     360/  8/  9   N/A
BURNHAM HARBOR             49     350/  8/ 11   N/A
CALUMET HARBOR             50      20/  6/  7   N/A
BURNS HARBOR               49     350/  8/ 10 1022.4R
MICHIGAN CITY              52     220/ 10/ 11   N/A
MICHIGAN CITY 6N           47 50   10/ 10/ 12   N/A           1/ 2
ST. JOSEPH                 51 49  270/ 10/ 12   N/A           1
$$

ILZ025>027-034>036-040-047-049-050-058-095>099-051000-
WEST-CENTRAL ILLINOIS

CITY           SKY/WX    TMP DP  RH WIND       PRES   REMARKS
QUINCY         CLOUDY    63  61  93 SE7       30.09S
GALESBURG*     RAIN      62  61  98 CALM      30.14S
MACOMB*        RAIN      62  61  97 NE9       30.11F
JACKSONVILLE*  CLOUDY    71  57  61 W6        30.11R
PITTSFIELD*    CLOUDY    68  57  68 CALM      30.12S
$$

ILZ028>032-037-038-041>044-048-051>054-059>061-051000-
CENTRAL ILLINOIS

CITY           SKY/WX    TMP DP  RH WIND       PRES   REMARKS
PONTIAC        CLOUDY    64  62  96 E5G15     30.12R
BLOOMINGTON    CLOUDY    64  61  90 S13       30.12S
DECATUR        CLOUDY    68  55  63 SW12      30.13R
PEORIA         CLOUDY    66  62  87 N9        30.13S FOG
LACON*         CLOUDY    60  59  95 N8        30.14R FOG
LINCOLN*       CLOUDY    66  58  73 S8        30.09S
SPRINGFIELD    CLOUDY    68  55  63 S12       30.11S
TAYLORVILLE    CLOUDY    64  54  68 S13       30.13S
$$

ILZ033-039-045-046-055>057-062-063-051000-
EAST-CENTRAL ILLINOIS

CITY           SKY/WX    TMP DP  RH WIND       PRES   REMARKS
CHAMPAIGN      CLOUDY    61  58  90 SE7       30.14S
DANVILLE*      CLOUDY    60  59  96 E5        30.13S
RANTOUL*       CLOUDY    64  62  94 SE5       30.14S FOG
MATTOON        MOCLDY    67  53  61 S9        30.15R
PARIS*         MOCLDY    67  56  66 SW12      30.17R
$$

ILZ079-100>102-051000-
SOUTHWEST ILLINOIS

CITY           SKY/WX    TMP DP  RH WIND       PRES   REMARKS
ALTON          MOCLDY    65  52  61 S6        30.14S
BELLEVILLE     MOCLDY    64  55  74 VRB1      30.14S
CAHOKIA*       MOCLDY    69  54  58 CALM      30.14S
SPARTA*        PTCLDY    64  53  68 S6        30.18S
$$

ILZ064>066-069>071-074>076-080>082-084>086-088>090-092>094-051000-
SOUTH-CENTRAL ILLINOIS

CITY           SKY/WX    TMP DP  RH WIND       PRES   REMARKS
CARBONDALE     PTCLDY    57  52  83 CALM      30.18S
CAIRO*         PTCLDY    58  53  82 CALM      30.19R
EFFINGHAM*     MOCLDY    65  50  57 S5        30.18S
MARION         PTCLDY    61  54  77 S6        30.19S
MT. VERNON     PTCLDY   N/A N/A N/A CALM      30.19R
CENTRALIA*     PTCLDY    62  52  68 S9        30.17S
SALEM*         PTCLDY    68  53  59 S7        30.17S
METROPOLIS*    CLEAR     58  55  90 CALM      30.20R
$$

ILZ067-068-072-073-078-083-087-091-051000-
SOUTHEAST ILLINOIS

CITY           SKY/WX    TMP DP  RH WIND       PRES   REMARKS
LAWRENCEVILLE  MOCLDY    61  56  83 S7        30.19R
FLORA*         PTCLDY    62  54  73 SW7       30.18S
FAIRFIELD*     PTCLDY    64  55  73 CALM      30.18R
HARRISBURG*    CLEAR     57  55  92 CALM      30.20S
ROBINSON*      MOCLDY    65  54  67 S6        30.19R
CARMI*         CLEAR     58  50  74 S3        30.20R
$$

ABBREVIATIONS USED IN REMARKS
   TC - TEMPERATURE IN CELSIUS
  WCI - WIND CHILL INDEX
   HX - HEAT INDEX
  VSB - VISIBILITY
$$



USA.gov is the U.S. government's official web portal to all federal, state and local government web resources and services.